FW0810 Weather Reports


time (UTC)temp
F
wind
direction
speed
knots
gust
knots
rain 1hr
in
rain 24hr
in
rain mn
in
humidity
%
barometer
mb
20260506072536 63 89 2.6 8.7 0.00 0.02 0.01 73 1015.3
20260506072031 64 53 2.6 8.7 0.00 0.02 0.01 73 1015.3
20260506071032 63 105 1.7 6.1 0.00 0.02 0.01 75 1015.3
20260506070531 62 195 0.9 7.8 0.00 0.02 0.01 77 1015.5
20260506061530 60 101 0.9 4.3 0.00 0.02 0.01 80 1015.7
20260506061033 60 101 0.9 4.3 0.00 0.02 0.01 79 1015.7
20260506060531 60 82 0.0 0.0 0.00 0.02 0.01 80 1015.7
20260506051010 60 210 0.9 3.5 0.00 0.02 0.01 80 1015.8
20260506050512 60 91 0.9 3.5 0.00 0.02 0.01 79 1015.6
20260506045015 60 80 0.0 3.5 0.00 0.02 0.01 79 1015.6
20260506044507 60 88 0.0 3.5 0.00 0.02 0.01 79 1015.6
20260506043005 60 92 0.0 4.3 0.00 0.03 0.01 79 1015.8
20260506042001 60 93 0.0 2.6 0.00 0.03 0.01 80 1015.6
20260506040458 60 117 0.0 0.0 0.00 0.04 0.01 79 1015.5
20260506035957 60 117 0.0 1.7 0.00 0.05 0.01 78 1015.4
20260506035458 60 126 0.9 3.5 0.00 0.05 0.01 77 1015.4
20260506034457 60 77 0.0 3.5 0.00 0.06 0.01 79 1015.3
20260506033954 60 76 0.0 5.2 0.00 0.06 0.01 78 1015.6
20260506033452 60 94 0.0 5.2 0.00 0.06 0.01 79 1015.6
20260506032951 60 89 0.0 2.6 0.00 0.06 0.01 79 1015.6
20260506032453 60 79 0.9 3.5 0.00 0.06 0.01 80 1015.6
20260506031434 60 58 0.9 5.2 0.01 0.07 0.01 80 1015.5
20260506030930 60 101 0.9 5.2 0.01 0.07 0.01 81 1015.7
20260506025931 60 83 0.0 4.3 0.01 0.07 0.01 82 1015.7
20260506025433 60 73 0.0 1.7 0.01 0.07 0.01 83 1015.6
20260506024931 60 91 0.0 3.5 0.01 0.08 0.01 82 1015.7
20260506024433 61 92 0.0 3.5 0.01 0.08 0.01 82 1015.7
20260506023932 61 53 0.0 0.0 0.01 0.08 0.01 82 1015.7
20260506023433 61 53 0.0 0.0 0.01 0.08 0.01 81 1016.0
20260506022433 61 53 0.0 3.5 0.01 0.08 0.01 79 1016.1
20260506021931 61 108 0.0 3.5 0.00 0.07 0.00 80 1016.0
20260506021432 62 88 0.9 3.5 0.00 0.07 0.00 80 1016.1
20260506020433 62 121 0.0 0.0 0.00 0.07 0.00 80 1016.3
20260506015430 62 122 0.0 0.0 0.00 0.07 0.00 81 1016.4
20260506014930 62 122 0.0 0.0 0.00 0.07 0.00 81 1016.3
20260506014430 62 124 0.0 0.9 0.00 0.07 0.00 81 1016.4
20260506013930 62 124 0.0 0.9 0.00 0.07 0.00 81 1016.4
20260506013430 62 72 0.0 1.7 0.00 0.07 0.00 82 1016.3
20260506012932 62 72 0.0 1.7 0.00 0.07 0.00 82 1016.2
20260506012430 62 72 0.0 1.7 0.00 0.07 0.00 82 1016.2
20260506011928 62 52 0.0 1.7 0.00 0.07 0.00 82 1016.2
20260506011430 62 105 0.0 0.9 0.00 0.07 0.00 83 1016.2
20260506010927 62 110 0.0 2.6 0.00 0.07 0.00 83 1016.3
20260506010427 62 110 0.0 2.6 0.00 0.07 0.00 82 1016.4
20260506005923 62 90 0.0 1.7 0.00 0.07 0.00 83 1016.3
20260506005425 62 91 0.0 2.6 0.00 0.07 0.00 83 1016.3
20260506004923 62 90 0.9 4.3 0.00 0.07 0.00 83 1016.3
20260506004420 62 86 0.9 5.2 0.00 0.07 0.00 83 1016.2
20260506003913 62 89 0.9 5.2 0.00 0.07 0.00 83 1016.2
20260506003408 62 79 0.0 4.3 0.00 0.07 0.00 83 1016.3
20260506002902 62 88 0.0 2.6 0.00 0.07 0.00 83 1016.4
20260506002356 62 90 0.0 2.6 0.00 0.07 0.00 84 1016.4
20260506001852 62 91 0.0 2.6 0.00 0.07 0.00 84 1016.4
20260506001345 62 92 0.0 3.5 0.00 0.07 0.00 84 1016.5
20260506000335 62 112 0.0 0.0 0.00 0.07 0.00 84 1016.6
20260505235828 62 112 0.0 0.0 0.00 0.07 0.00 84 1016.6
20260505235320 62 111 0.0 2.6 0.00 0.07 0.00 84 1016.7
20260505234328 62 124 0.0 0.9 0.00 0.07 0.00 83 1016.8
20260505233815 62 126 0.0 3.5 0.00 0.07 0.00 83 1016.8
20260505233311 62 134 0.0 3.5 0.00 0.07 0.00 83 1016.8
20260505232808 62 117 0.0 2.6 0.00 0.07 0.00 83 1016.8
20260505232308 62 112 0.0 2.6 0.00 0.07 0.00 83 1016.8
20260505231306 62 102 0.0 1.7 0.00 0.07 0.00 83 1016.9
20260505230804 62 103 0.0 3.5 0.00 0.07 0.00 83 1017.0
20260505230304 62 103 0.9 3.5 0.00 0.07 0.00 82 1017.1
20260505225805 62 172 0.0 3.5 0.00 0.07 0.00 82 1017.1
20260505225318 62 131 0.0 0.9 0.00 0.07 0.00 83 1017.1
20260505224810 62 138 0.0 1.7 0.00 0.07 0.00 83 1017.1
20260505224302 62 182 0.0 2.6 0.00 0.07 0.00 82 1017.2
20260505223800 62 127 0.0 2.6 0.00 0.07 0.00 82 1017.2
20260505223301 62 153 0.0 2.6 0.00 0.07 0.00 82 1017.3
20260505222259 62 142 0.0 0.9 0.00 0.07 0.00 82 1017.3
20260505221759 62 142 0.0 3.5 0.00 0.07 0.00 82 1017.3
20260505221256 62 139 0.0 3.5 0.00 0.07 0.00 82 1017.3
20260505220757 62 192 0.0 1.7 0.00 0.07 0.00 82 1017.3
20260505220258 63 192 0.0 3.5 0.00 0.07 0.00 82 1017.4
20260505215253 63 104 0.0 0.0 0.00 0.07 0.07 81 1017.5
20260505214753 63 104 0.0 0.9 0.00 0.07 0.07 81 1017.5
20260505214254 63 104 0.0 0.9 0.00 0.07 0.07 82 1017.7
20260505213753 63 27 0.0 0.0 0.00 0.07 0.07 82 1017.7
20260505213252 63 26 0.0 0.0 0.00 0.07 0.07 81 1017.7
20260505212752 63 26 0.0 0.0 0.00 0.07 0.07 82 1017.7
20260505211752 63 26 0.0 0.0 0.00 0.07 0.07 81 1017.7
20260505211253 63 26 0.0 0.0 0.00 0.07 0.07 81 1017.7
20260505210752 63 26 0.0 0.0 0.00 0.07 0.07 81 1017.9
20260505210255 63 26 0.0 0.0 0.00 0.07 0.07 81 1017.9
20260505205753 63 26 0.0 0.0 0.00 0.07 0.07 81 1017.9
20260505204753 63 29 0.0 0.0 0.00 0.07 0.07 81 1017.7
20260505204254 63 29 0.0 0.0 0.00 0.07 0.07 81 1017.8
20260505203755 63 29 0.0 0.0 0.00 0.07 0.07 81 1017.8
20260505203251 63 29 0.0 0.0 0.00 0.07 0.07 81 1017.9
20260505202751 63 29 0.0 0.0 0.00 0.07 0.07 81 1017.8
20260505202251 63 29 0.0 0.0 0.00 0.07 0.07 81 1017.8
20260505201752 63 29 0.0 0.0 0.00 0.07 0.07 81 1017.8
20260505200247 63 15 0.0 0.0 0.00 0.07 0.07 82 1017.8
20260505195744 63 1 0.0 0.9 0.00 0.07 0.07 82 1017.9
20260505195245 63 1 0.0 0.9 0.00 0.07 0.07 82 1017.9
20260505194743 63 97 0.0 0.0 0.00 0.07 0.07 82 1017.8
20260505194244 63 97 0.0 0.0 0.00 0.07 0.07 82 1017.7
20260505193739 63 171 0.0 0.0 0.00 0.07 0.07 82 1017.8
20260505192736 62 203 1.7 6.1 0.00 0.07 0.07 82 1017.5
20260505192233 62 127 0.9 6.1 0.00 0.07 0.07 82 1017.4
20260505191733 62 131 0.9 3.5 0.00 0.07 0.07 82 1017.3
20260505191228 63 247 0.0 3.5 0.00 0.07 0.07 82 1017.4
20260505190720 63 177 0.9 4.3 0.00 0.07 0.07 82 1017.3
20260505190213 63 192 0.9 4.3 0.00 0.07 0.07 82 1017.3
20260505185709 63 129 0.0 2.6 0.00 0.07 0.07 83 1017.4
20260505185205 63 93 0.0 0.0 0.00 0.07 0.07 83 1017.3
20260505184658 63 92 0.0 1.7 0.00 0.07 0.07 82 1017.3
20260505184150 63 95 0.0 1.7 0.00 0.07 0.07 82 1017.3
20260505183644 63 84 0.0 2.6 0.00 0.07 0.07 82 1017.1
20260505183140 63 158 0.0 2.6 0.00 0.07 0.07 82 1017.1
20260505182631 63 112 0.0 4.3 0.00 0.07 0.07 82 1017.2
20260505181621 63 103 0.0 9.6 0.00 0.07 0.07 82 1017.1
20260505181114 63 176 0.0 9.6 0.00 0.07 0.07 82 1017.0
20260505180609 63 176 0.0 0.0 0.00 0.07 0.07 82 1016.9
20260505180109 63 193 0.0 0.0 0.00 0.07 0.07 82 1017.1
20260505175049 63 177 0.9 7.8 0.00 0.07 0.07 81 1017.0
20260505174546 63 162 0.9 6.1 0.00 0.07 0.07 81 1016.9
20260505173532 64 110 0.9 7.8 0.00 0.07 0.07 80 1017.1
20260505173028 64 153 0.9 7.8 0.00 0.07 0.07 80 1017.2
20260505172529 64 284 0.9 3.5 0.00 0.07 0.07 80 1017.1
20260505172026 64 122 0.9 6.1 0.00 0.07 0.07 80 1017.1
20260505171524 64 173 0.9 6.1 0.00 0.07 0.07 80 1016.9
20260505171026 64 122 0.0 4.3 0.00 0.07 0.07 80 1017.1
20260505170524 64 208 0.9 7.0 0.00 0.07 0.07 80 1017.1
20260505170027 64 135 0.0 7.0 0.00 0.07 0.07 80 1017.1
20260505165522 64 109 0.0 1.7 0.00 0.07 0.07 80 1017.0
20260505165023 64 78 0.0 1.7 0.00 0.07 0.07 80 1017.0
20260505164021 64 266 0.0 3.5 0.00 0.07 0.07 80 1017.0
20260505163521 64 91 0.0 3.5 0.00 0.07 0.07 80 1016.9
20260505163021 64 108 0.0 1.7 0.00 0.07 0.07 80 1016.9
20260505162522 64 106 0.0 4.3 0.00 0.07 0.07 80 1017.1
20260505162019 64 141 0.9 9.6 0.00 0.07 0.07 79 1017.1
20260505161516 64 179 1.7 9.6 0.00 0.07 0.07 79 1017.2
20260505161020 65 285 1.7 10.4 0.00 0.07 0.07 79 1017.3
20260505160516 65 160 1.7 10.4 0.00 0.07 0.07 79 1017.2
20260505153014 65 262 0.9 6.1 0.01 0.07 0.07 78 1017.4
20260505152512 65 260 0.9 4.3 0.01 0.07 0.07 79 1017.4
20260505152013 65 188 0.9 6.1 0.01 0.07 0.07 79 1017.4
20260505151510 65 217 0.9 6.1 0.01 0.07 0.07 79 1017.4
20260505151008 65 305 1.7 8.7 0.01 0.07 0.07 79 1017.3
20260505140458 64 144 0.0 1.7 0.00 0.06 0.06 79 1017.5
20260505124948 63 165 0.0 6.1 0.00 0.06 0.06 78 1018.0
20260505123947 63 286 0.0 1.7 0.00 0.06 0.06 77 1018.2
20260505123446 63 116 0.0 5.2 0.00 0.06 0.06 78 1018.2
20260505122956 64 116 0.9 5.2 0.00 0.06 0.06 77 1018.2
20260505122442 64 208 0.9 8.7 0.00 0.06 0.06 77 1018.3
20260505121943 64 145 0.9 8.7 0.00 0.06 0.06 77 1018.2
20260505121443 64 44 0.0 3.5 0.00 0.06 0.06 77 1018.3
20260505120942 63 90 0.0 2.6 0.00 0.06 0.06 78 1018.2
20260505120443 63 93 0.0 2.6 0.00 0.06 0.06 77 1018.2
20260505115940 63 284 0.0 2.6 0.00 0.06 0.06 78 1018.3
20260505115440 62 342 0.9 2.6 0.00 0.06 0.06 78 1018.3
20260505113940 62 351 0.9 6.1 0.00 0.06 0.06 77 1018.5
20260505112941 62 336 0.9 5.2 0.00 0.06 0.06 77 1018.5
20260505112438 62 262 0.0 2.6 0.00 0.06 0.06 78 1018.5
20260505111938 62 259 0.9 10.4 0.00 0.06 0.06 78 1018.5
20260505111439 62 105 0.9 10.4 0.00 0.06 0.06 77 1018.6
20260505110938 62 1 0.9 5.2 0.00 0.06 0.06 78 1018.6
20260505110438 62 239 0.9 6.1 0.00 0.06 0.06 79 1018.5
20260505101928 61 255 0.0 2.6 0.00 0.06 0.06 81 1018.7
20260505101426 61 255 0.9 4.3 0.00 0.06 0.06 81 1018.7
20260505100926 60 269 0.9 5.2 0.00 0.06 0.06 80 1018.7
20260505100438 60 72 0.0 5.2 0.00 0.06 0.06 82 1018.6
20260505095422 60 20 0.0 0.9 0.00 0.06 0.06 84 1018.6
20260505094922 60 11 0.0 3.5 0.00 0.06 0.06 84 1018.7
20260505094420 60 100 0.9 5.2 0.00 0.06 0.06 84 1018.7
20260505093919 59 358 1.7 5.2 0.00 0.06 0.06 84 1018.7
20260505093417 60 75 1.7 4.3 0.00 0.06 0.06 84 1018.9
20260505091353 60 91 0.0 1.7 0.00 0.06 0.06 85 1018.6
20260505090848 59 91 0.0 4.3 0.00 0.06 0.06 85 1018.5
20260505090343 59 93 0.0 4.3 0.00 0.06 0.06 85 1018.6
20260505085838 59 84 0.0 5.2 0.00 0.06 0.06 85 1018.6
20260505085331 59 84 0.9 5.2 0.00 0.06 0.06 86 1018.6
20260505084823 59 112 1.7 5.2 0.00 0.06 0.06 85 1018.5
20260505084318 59 77 0.9 5.2 0.00 0.06 0.06 86 1018.5
20260505083812 59 105 0.9 3.5 0.00 0.06 0.06 86 1018.5
20260505082801 58 203 0.0 4.3 0.00 0.06 0.06 86 1018.4
20260505082251 58 89 0.9 6.1 0.00 0.06 0.06 87 1018.4
20260505080733 58 84 0.9 3.5 0.00 0.06 0.06 87 1018.3
20260505080227 58 94 0.9 3.5 0.00 0.06 0.06 87 1018.5
20260505075721 58 94 0.9 6.1 0.00 0.06 0.06 86 1018.3
20260505075216 58 84 0.9 6.1 0.00 0.06 0.06 86 1018.5
20260505074709 58 88 1.7 5.2 0.00 0.06 0.06 87 1018.5